Regional Weather Roundup
Issued by NWS Kansas City/Pleasant Hill, MO

Home | Current Version | Previous Version | Graphics & Text | Print | Product List | Glossary Off
Versions: 1 2 3 4 5 6 7 8 9 10 11 12 13 14 15 16 17 18 19 20 21 22 23 24 25 26 27 28 29 30 31 32 33 34 35 36 37 38 39 40 41 42 43 44 45 46 47 48 49 50

448
ASUS43 KEAX 220810
RWREAX

WEATHER ROUNDUP FOR EASTERN KANSAS AND NORTHWEST MISSOURI
NATIONAL WEATHER SERVICE KANSAS CITY/PLEASANT HILL MO
300 AM CDT FRI JUL 22 2016

KSZ040-057-103>105-MOZ028-029-037-043-220900-
...KANSAS CITY METROPOLITAN AREA...

CITY           SKY/WX    TMP DP  RH WIND       PRES   REMARKS
K.C. INTL      PTCLDY    82  72  71 SW14      29.99F
K.C. DOWNTOWN  CLEAR     85  72  65 S8        29.97F HX  91
LEES SUMMIT    CLEAR     83  72  69 SW12      30.01S
OLATHE - IXD   CLEAR     79  73  82 S9        30.01F
OLATHE - OJC   CLEAR     81  71  71 SW9       30.01F
LAWRENCE       CLEAR     80  73  79 VRB3      29.99F

$$

MOZ001>008-011>017-020>025-030>033-038>040-044>046-053-054-220900-
...NORTHERN AND CENTRAL MISSOURI...

CITY           SKY/WX    TMP DP  RH WIND       PRES   REMARKS
ST. JOSEPH     CLEAR     81  73  76 S8        29.96F
MOSBY          SUNNY     81  72  74 CALM      29.98F
WHITEMAN AFB   CLEAR     77  76  95 SW9       29.99F
CLINTON        CLEAR     81  73  78 CALM      30.02S
SEDALIA        CLEAR     81  73  76 SW9       30.02S
WARSAW         NOT AVBL
CHILLICOTHE      N/A     81  75  82 S5        29.98S
KIRKSVILLE     PTCLDY    80  73  79 SW5       30.00R

$$

MOZ041-047>049-056>058-063>065-088>090-097-220900-
...EASTERN AND SOUTHERN MISSOURI...

CITY           SKY/WX    TMP DP  RH WIND       PRES   REMARKS
ST. LOUIS INTL PTCLDY    85  77  77 SW5       30.04R HX  95
SPIRIT OF STL  CLEAR     83  78  85 CALM      30.02R HX  93
COLUMBIA       CLEAR     79  75  87 S6        30.02S
JEFFERSON CITY CLEAR     81  76  84 S3        30.00F
ROLLA          CLEAR     77  74  90 S7        30.04F
OSAGE BEACH    CLEAR     78  75  90 SW3       30.04F
SPRINGFIELD    CLEAR     77  72  84 S5        30.06F
JOPLIN         CLEAR     79  72  79 S8        30.05S
WEST PLAINS    CLEAR     79  73  82 SW3       30.11S

$$

IAZ060-094-KSZ022-034>040-054-083-096-NEZ052-066-093-220900-
...KANSAS...SOUTHEAST NEBRASKA AND IOWA...

CITY           SKY/WX    TMP DP  RH WIND       PRES   REMARKS
TOPEKA         CLEAR     84  71  65 S8        29.98S
MANHATTAN      CLEAR     82  70  66 SW8       29.97S
EMPORIA        CLEAR     78  72  81 S10       30.01S
CHANUTE        CLEAR     79  72  79 S8        30.02F
WICHITA        CLEAR     79  68  69 S9        30.02S
OMAHA          CLOUDY    85  76  74 S10       29.91F HX  94
LINCOLN        CLEAR     81  72  74 S10       29.92F
FALLS CITY     CLEAR     82  73  74 S13       29.94F
LAMONI         CLEAR     78  75  90 SW8       29.97S
DES MOINES     CLOUDY    83  76  79 SE5       29.95R HX  91

$$





USA.gov is the U.S. government's official web portal to all federal, state and local government web resources and services.